Tracking 22836 objects as of 18-Apr-2021
HD Live streaming from Space Station
objects crossing your sky now

DELTA 1 DEB

Track DELTA 1 DEB now!
10-day predictions


NORAD ID: 7044
Int'l Code: 1973-086AL
Perigee: 1,424.6 km
Apogee: 1,565.7 km
Inclination: 102.5 °
Period: 115.7 minutes
Semi major axis: 7866 km
RCS: 0.2084 m2 (medium)
Launch date: November 6, 1973
Source: United States (US)
Launch site: AIR FORCE WESTERN TEST RANGE (AFWTR)

Note: This is SATELLITE DEBRIS
aabbcc
Your satellite tracking list
Your tracking list is empty




NASA's NSSDC Master Catalog

Two Line Element Set (TLE):
1 07044U 73086AL  21107.85326668 -.00000094  00000-0 -32221-3 0  9992
2 07044 102.4689 242.1702 0089692 101.6392  28.2310 12.44408315154616
Source of the keplerian elements: AFSPC